Ft Pierce, FL

8:14 AM EST on January 23, 2018 (GMT -0500)
Saint Lucie County International

Weather History for KFPR - January, 2013

Change the Weather History Date:

Tuesday, January 1, 2013

  Actual Average Record
Temperature  
Mean Temperature 65 °F 62 °F  
Max Temperature 77 °F 73 °F 86 °F (1982)
Min Temperature 53 °F 52 °F 29 °F (2001)
Degree Days  
Heating Degree Days 0 5  
Month to date heating degree days 5  
Since 1 July heating degree days 128  
Cooling Degree Days 0 2  
Month to date cooling degree days 2  
Year to date cooling degree days 2  
Growing Degree Days 15 (Base 50)    
Moisture  
Dew Point 57 °F    
Average Humidity 79    
Maximum Humidity 97    
Minimum Humidity 54    
Precipitation  
Precipitation 0.00 in 0.08 in 1.72 in (1993)
Month to date precipitation 0.08  
Year to date precipitation 0.08  
Sea Level Pressure  
Sea Level Pressure 30.13 in    
Wind  
Wind Speed 3 mph (SSE)    
Max Wind Speed 16 mph    
Max Gust Speed -    
Visibility 7 miles    
Events      
T = Trace of Precipitation, MM = Missing Value Source: NWS Daily Summary

Daily Weather History Graph

Daily Weather History Graph

Search for Another Location

Airport or City:

Trip Planner

Search our weather history database for the weather conditions in past years. The results will help you decide how hot, cold, wet, or windy it might be!

Date:

Astronomy

Jan. 01, 2013 Rise Set
Actual Time 7:11 AM EST 5:38 PM EST
Civil Twilight 6:46 AM EST 6:04 PM EST
Nautical Twilight 6:17 AM EST 6:33 PM EST
Astronomical Twilight 5:48 AM EST 7:01 PM EST
Moon 9:43 PM EST (1/1) 9:45 AM EST (1/1)
Length of Visible Light 11h 17m
Length of Day
10h 26m
Waning Gibbous, 83% of the Moon is Illuminated
Jan 1
Waning Gibbous
Jan 4
Last Quarter
Jan 11
New
Jan 18
First Quarter
Jan 26
Full

Hourly Weather History & Observations

Time (EST) Temp. Dew Point Humidity Pressure Visibility Wind Dir Wind Speed Gust Speed Precip Events Conditions
12:53 AM 57.0 °F 54.0 °F 89% 30.22 in 4.0 mi Calm Calm - N/A   Overcast
1:53 AM 57.9 °F 55.0 °F 90% 30.21 in 4.0 mi Calm Calm - N/A   Overcast
2:53 AM 55.9 °F 54.0 °F 93% 30.20 in 4.0 mi Calm Calm - N/A   Mostly Cloudy
3:53 AM 54.0 °F 52.0 °F 93% 30.18 in 3.0 mi Calm Calm - N/A   Mostly Cloudy
4:53 AM 54.0 °F 53.1 °F 97% 30.15 in 4.0 mi Calm Calm - N/A   Overcast
5:29 AM 53.6 °F 51.8 °F 94% 30.15 in 2.5 mi Calm Calm - N/A   Overcast
5:38 AM 53.6 °F 51.8 °F 94% 30.15 in 3.0 mi Calm Calm - N/A   Overcast
5:53 AM 54.0 °F 52.0 °F 93% 30.16 in 3.0 mi Calm Calm - N/A   Overcast
6:37 AM 55.4 °F 53.6 °F 94% 30.15 in 5.0 mi Calm Calm - N/A   Overcast
6:53 AM 55.9 °F 53.1 °F 90% 30.15 in 5.0 mi Calm Calm - N/A   Overcast
7:44 AM 57.2 °F 55.4 °F 94% 30.15 in 4.0 mi NW 3.5 mph - N/A   Overcast
7:53 AM 57.9 °F 55.9 °F 93% 30.16 in 3.0 mi NW 3.5 mph - N/A   Overcast
8:53 AM 64.9 °F 61.0 °F 87% 30.18 in 6.0 mi Calm Calm - N/A   Mostly Cloudy
9:53 AM 70.0 °F 60.1 °F 71% 30.18 in 9.0 mi SW 4.6 mph - N/A   Overcast
10:53 AM 73.9 °F 59.0 °F 59% 30.15 in 10.0 mi South 11.5 mph - N/A   Overcast
11:53 AM 77.0 °F 59.0 °F 54% 30.14 in 10.0 mi South 5.8 mph - N/A   Overcast
12:53 PM 75.9 °F 59.0 °F 56% 30.11 in 10.0 mi ESE 10.4 mph - N/A   Overcast
1:53 PM 77.0 °F 60.1 °F 56% 30.08 in 10.0 mi SE 12.7 mph - N/A   Mostly Cloudy
2:53 PM 75.9 °F 60.1 °F 58% 30.06 in 10.0 mi SE 15.0 mph - N/A   Scattered Clouds
3:53 PM 75.9 °F 60.1 °F 58% 30.06 in 10.0 mi SE 16.1 mph - N/A   Mostly Cloudy
4:53 PM 73.9 °F 61.0 °F 64% 30.06 in 10.0 mi SE 10.4 mph - N/A   Mostly Cloudy
5:53 PM 71.1 °F 60.1 °F 68% 30.07 in 10.0 mi SSE 6.9 mph - N/A   Mostly Cloudy
6:53 PM 69.1 °F 60.1 °F 73% 30.07 in 10.0 mi South 3.5 mph - N/A   Overcast
7:53 PM 66.0 °F 59.0 °F 78% 30.08 in 10.0 mi SSE 3.5 mph - N/A   Clear
8:53 PM 66.0 °F 59.0 °F 78% 30.08 in 10.0 mi South 4.6 mph - N/A   Overcast
9:53 PM 66.9 °F 59.0 °F 76% 30.09 in 10.0 mi South 3.5 mph - N/A   Overcast
10:53 PM 66.0 °F 59.0 °F 78% 30.07 in 10.0 mi South 5.8 mph - N/A   Scattered Clouds
11:53 PM 64.9 °F 59.0 °F 81% 30.06 in 10.0 mi SSE 5.8 mph - N/A   Overcast